Showing default

YAOGAN-30 S, 45461

Orbit data source: Space-Track

YAOGAN-30 S, 45461 is a payload satellite owned by PLA SSF (CN) in LEO that was launched on Tue, 24 Mar 2020 UTC via a CHANG ZHENG 2C launch vehicle from the Xichang Space Center, China (XSC). Payload-class satellites include a variety of spacecraft equipped with specific instruments for various scientific and technological missions. These include communications satellites like Starlink; space stations such as the ISS; scientific satellites like the Hubble; Earth observation satellites from companies like Planet Labs, Umbra, and HawkEye 360; GPS; miniature CubeSats for education and research; and military/defense satellites.

Loading next visibility...
Identifier
45461, 2020-021B
Orbit
LEO
Country
Flag of CNCN / PRC
Related business
Manufacturer
SECM
Mission
Operational Defense Sigint
Bus & Motor
Unknown
Mass
~500 kg wet, ~500 kg dry
Launch date (UTC)
2020-03-24 (6 years ago)
Launch vehicle
CHANG ZHENG 2C
Launch site
Xichang Space Center, China (XSC)
Object type
Payload
Rocket body
Debris
Shape & HBR
Box + 2 Pan, 0.5 m
Radar Cross Section
0.446 m², Large (>1 m²)

Expand to show TLE details & history
Last TLE update: 23 hours ago

TLE from 23 hours ago
0 YAOGAN-30 S
1 45461U 20021B   26172.46126931  .00001482  00000-0  11100-3 0  9996
2 45461  34.9926 184.4290 0003085 257.2889 102.7475 15.02688765341136
Epoch: 2026-06-21T11:04Z
TLE epoch observation values (Epoch: 2026-06-21T11:04:13.668Z)
Latitude
0.00002°
Longitude
108.71087°
Altitude
557.998 km
Speed
7.585 km/s
True Right ascension
12h 17m 42s
True Declination
0° 00' 00"
Sunlit
Object was in daylight at epoch
Visualization orbit readout
Latitude
Unknown
Longitude
Unknown
Altitude
Unknown
Speed
Unknown
Apparent Right ascension
Unknown
Apparent Declination
Unknown
Sunlit
N/A
Visualization observer readout
Local Sidereal Time
21:24:01
Azimuth
Unknown
Elevation
Unknown
Doppler factor
Unknown
Orbital elements
Apogee altitude
563.973 km
Perigee altitude
559.691 km
Semi-major axis
6,939.969 km
Eccentricity
0.00031
Inclination
34.9926°
RAAN
184.429°
Arg. of periapsis
257.2889°
True anomaly
102.78198°
Mean anomaly
102.7475°
Eccentric anomaly
102.76474°
Mean motion
3.75411 °/min
Orbital period
95.89 mins
BSTAR
0.000111
Loading maneuver chart data...
Computing Atmospheric mass density...
Loading historical data...
Loading historical data...
Loading historical data...
Loading historical data...
Loading historical data...
Loading historical data...
Loading historical data...
Other satellites on launch #21 in the year 2020 (2020-03-24 UTC)

Documentation

Showing up to 5 results
|